K4FB Weather Reports


Display with metric or nautical units.
time (UTC)temp
F
wind
direction
speed
MPH
gust
MPH
rain 1hr
in
rain 24hr
in
rain mn
in
humidity
%
barometer
mb
20260505234506 82 85 4.0 11.0 0.00 0.00 0.00 54 1015.1
20260505234004 82 75 2.0 8.0 0.00 0.00 0.00 54 1015.1
20260505233507 83 74 4.0 9.0 0.00 0.00 0.00 53 1015.0
20260505233008 83 90 4.0 9.0 0.00 0.00 0.00 52 1014.9
20260505232502 84 126 5.0 10.0 0.00 0.00 0.00 51 1015.0
20260505232005 84 148 4.0 11.0 0.00 0.00 0.00 50 1015.0
20260505231507 84 101 5.0 11.0 0.00 0.00 0.00 49 1015.0
20260505231004 85 75 3.0 7.0 0.00 0.00 0.00 49 1015.0
20260505230503 85 77 1.0 7.0 0.00 0.00 0.00 49 1015.0
20260505230024 85 102 2.0 8.0 0.00 0.00 0.00 47 1015.0
20260505225504 86 67 2.0 8.0 0.00 0.00 0.00 48 1015.1
20260505225003 86 77 4.0 7.0 0.00 0.00 0.00 47 1015.1
20260505224003 86 57 2.0 9.0 0.00 0.00 0.00 46 1015.3
20260505223503 87 85 4.0 9.0 0.00 0.00 0.00 45 1015.2
20260505223014 88 76 4.0 8.0 0.00 0.00 0.00 45 1015.2
20260505222508 88 53 3.0 10.0 0.00 0.00 0.00 45 1015.2
20260505222003 88 115 7.0 10.0 0.00 0.00 0.00 45 1015.1
20260505221507 88 53 3.0 8.0 0.00 0.00 0.00 43 1015.1
20260505221004 88 51 4.0 8.0 0.00 0.00 0.00 43 1015.1
20260505220504 88 104 2.0 8.0 0.00 0.00 0.00 45 1015.1
20260505220008 88 86 4.0 9.0 0.00 0.00 0.00 45 1015.1
20260505215504 88 107 3.0 10.0 0.00 0.00 0.00 45 1015.0
20260505214503 90 26 5.0 10.0 0.00 0.00 0.00 42 1015.1
20260505214003 90 113 4.0 10.0 0.00 0.00 0.00 43 1015.0
20260505213502 90 63 3.0 9.0 0.00 0.00 0.00 44 1015.0
20260505213021 89 71 3.0 9.0 0.00 0.00 0.00 44 1014.9
20260505212506 89 87 4.0 9.0 0.00 0.00 0.00 43 1014.9
20260505212008 89 360 4.0 9.0 0.00 0.00 0.00 41 1014.9
20260505211522 89 338 5.0 9.0 0.00 0.00 0.00 41 1014.9
20260505211003 89 18 2.0 9.0 0.00 0.00 0.00 41 1014.8
20260505210503 90 13 1.0 9.0 0.00 0.00 0.00 42 1014.9
20260505210006 90 49 3.0 10.0 0.00 0.00 0.00 41 1015.0
20260505205504 91 352 2.0 10.0 0.00 0.00 0.00 40 1014.9
20260505205007 91 86 3.0 10.0 0.00 0.00 0.00 41 1014.9
20260505204510 91 80 5.0 10.0 0.00 0.00 0.00 40 1015.0
20260505204005 91 93 2.0 11.0 0.00 0.00 0.00 40 1015.0
20260505203503 91 98 1.0 12.0 0.00 0.00 0.00 42 1015.1
20260505203023 90 45 2.0 12.0 0.00 0.00 0.00 42 1015.1
20260505202006 90 38 4.0 9.0 0.00 0.00 0.00 42 1015.1
20260505201510 90 5 1.0 9.0 0.00 0.00 0.00 44 1015.2
20260505201004 91 53 3.0 10.0 0.00 0.00 0.00 41 1015.2
20260505200508 92 39 4.0 10.0 0.00 0.00 0.00 39 1015.2
20260505200005 92 34 4.0 9.0 0.00 0.00 0.00 40 1015.2
20260505195505 92 42 4.0 12.0 0.00 0.00 0.00 40 1015.2
20260505195004 92 89 6.0 12.0 0.00 0.00 0.00 41 1015.2
20260505194508 92 36 5.0 12.0 0.00 0.00 0.00 39 1015.3
20260505194004 92 98 3.0 9.0 0.00 0.00 0.00 41 1015.3
20260505193505 92 57 1.0 10.0 0.00 0.00 0.00 39 1015.3
20260505193012 92 274 1.0 10.0 0.00 0.00 0.00 43 1015.5
20260505192509 92 52 4.0 10.0 0.00 0.00 0.00 41 1015.5
20260505192005 92 55 6.0 13.0 0.00 0.00 0.00 41 1015.7
20260505191516 92 350 4.0 13.0 0.00 0.00 0.00 41 1015.7
20260505191005 92 32 3.0 11.0 0.00 0.00 0.00 42 1015.8
20260505190507 91 335 4.0 10.0 0.00 0.00 0.00 43 1015.8
20260505190022 92 29 5.0 11.0 0.00 0.00 0.00 43 1015.9
20260505185510 92 44 6.0 11.0 0.00 0.00 0.00 47 1015.8
20260505185009 92 44 3.0 10.0 0.00 0.00 0.00 45 1015.9
20260505184510 91 28 4.0 11.0 0.00 0.00 0.00 43 1015.9
20260505184007 91 71 4.0 11.0 0.00 0.00 0.00 44 1016.0
20260505183502 90 59 3.0 9.0 0.00 0.00 0.00 43 1016.1
20260505182503 90 128 5.0 10.0 0.00 0.00 0.00 46 1016.2
20260505182004 89 78 4.0 10.0 0.00 0.00 0.00 51 1016.3
20260505181004 89 104 5.0 10.0 0.00 0.00 0.00 46 1016.6
20260505180508 88 34 3.0 12.0 0.00 0.00 0.00 49 1016.6
20260505180019 88 87 4.0 12.0 0.00 0.00 0.00 51 1016.6
20260505175504 87 136 6.0 14.0 0.00 0.00 0.00 49 1016.6
20260505175006 86 72 5.0 14.0 0.00 0.00 0.00 52 1016.7
20260505174521 86 67 5.0 12.0 0.00 0.00 0.00 51 1016.8
20260505174012 85 42 7.0 11.0 0.00 0.00 0.00 53 1016.9
20260505173503 84 99 3.0 11.0 0.00 0.00 0.00 55 1016.8
20260505173014 83 22 4.0 7.0 0.00 0.00 0.00 54 1017.0
20260505172504 83 343 2.0 10.0 0.00 0.00 0.00 54 1017.0
20260505172003 83 344 3.0 10.0 0.00 0.00 0.00 53 1017.0
20260505171511 83 85 6.0 10.0 0.00 0.00 0.00 53 1017.1
20260505171004 84 81 5.0 9.0 0.00 0.00 0.00 51 1017.2
20260505170509 84 16 3.0 12.0 0.00 0.00 0.00 50 1017.1
20260505170017 85 120 3.0 12.0 0.00 0.00 0.00 53 1017.1
20260505165509 85 26 6.0 12.0 0.00 0.00 0.00 52 1017.1
20260505165004 85 34 4.0 11.0 0.00 0.00 0.00 53 1017.2
20260505164519 84 54 6.0 13.0 0.00 0.00 0.00 54 1017.2
20260505164004 84 13 6.0 13.0 0.00 0.00 0.00 52 1017.2
20260505163508 84 49 5.0 13.0 0.00 0.00 0.00 52 1017.2
20260505163025 83 42 5.0 12.0 0.00 0.00 0.00 53 1017.2
20260505162505 83 82 5.0 10.0 0.00 0.00 0.00 54 1017.3
20260505162008 83 50 3.0 10.0 0.00 0.00 0.00 55 1017.3
20260505161522 82 74 2.0 13.0 0.00 0.00 0.00 54 1017.3
20260505161007 83 41 7.0 13.0 0.00 0.00 0.00 53 1017.3
20260505160510 83 103 6.0 12.0 0.00 0.00 0.00 53 1017.2
20260505153014 84 109 5.0 12.0 0.00 0.00 0.00 55 1017.3
20260505152004 84 100 6.0 12.0 0.00 0.00 0.00 56 1017.3
20260505151004 83 116 3.0 11.0 0.00 0.00 0.00 56 1017.4
20260505150507 83 63 6.0 12.0 0.00 0.00 0.00 56 1017.4
20260505140505 78 117 6.0 14.0 0.00 0.00 0.00 66 1016.8
20260505125004 71 74 5.0 10.0 0.00 0.00 0.00 80 1017.0
20260505124513 71 111 4.0 9.0 0.00 0.00 0.00 81 1017.0
20260505124003 71 100 3.0 9.0 0.00 0.00 0.00 82 1017.0
20260505123503 71 72 2.0 8.0 0.00 0.00 0.00 82 1017.0
20260505122507 70 76 3.0 8.0 0.00 0.00 0.00 85 1017.1
20260505122004 69 108 2.0 8.0 0.00 0.00 0.00 86 1017.1
20260505121518 69 78 1.0 4.0 0.00 0.00 0.00 87 1017.1
20260505121006 69 77 0.0 6.0 0.00 0.00 0.00 88 1017.1
20260505120504 68 36 2.0 6.0 0.00 0.00 0.00 89 1017.1
20260505120038 68 71 3.0 6.0 0.00 0.00 0.00 89 1016.9
20260505115508 67 61 2.0 6.0 0.00 0.00 0.00 90 1016.8
20260505115003 67 92 1.0 6.0 0.00 0.00 0.00 91 1016.7
20260505114002 66 63 0.0 3.0 0.00 0.00 0.00 91 1016.5
20260505113505 66 71 0.0 3.0 0.00 0.00 0.00 91 1016.4
20260505113007 66 68 1.0 4.0 0.00 0.00 0.00 92 1016.3
20260505112507 66 67 0.0 4.0 0.00 0.00 0.00 92 1016.2
20260505112009 65 66 1.0 4.0 0.00 0.00 0.00 92 1016.0
20260505111009 65 26 0.0 2.0 0.00 0.00 0.00 91 1016.1
20260505110508 65 26 0.0 2.0 0.00 0.00 0.00 91 1016.1
20260505102010 65 78 0.0 3.0 0.00 0.00 0.00 93 1015.7
20260505101522 64 40 0.0 4.0 0.00 0.00 0.00 93 1015.8
20260505101010 64 50 1.0 5.0 0.00 0.00 0.00 94 1015.7
20260505100508 64 55 0.0 5.0 0.00 0.00 0.00 94 1015.6
20260505100022 64 64 0.0 4.0 0.00 0.00 0.00 94 1015.6
20260505095508 63 51 1.0 3.0 0.00 0.00 0.00 95 1015.5
20260505095013 63 58 1.0 3.0 0.00 0.00 0.00 94 1015.4
20260505094528 62 42 0.0 3.0 0.00 0.00 0.00 93 1015.4
20260505094006 62 92 0.0 3.0 0.00 0.00 0.00 92 1015.4
20260505093510 62 92 0.0 1.0 0.00 0.00 0.00 91 1015.4
20260505093026 62 92 0.0 1.0 0.00 0.00 0.00 91 1015.3
20260505092504 62 92 0.0 0.0 0.00 0.00 0.00 91 1015.3
20260505092008 62 92 0.0 0.0 0.00 0.00 0.00 91 1015.4
20260505091525 62 92 0.0 0.0 0.00 0.00 0.00 91 1015.4
20260505091004 63 92 0.0 0.0 0.00 0.00 0.00 91 1015.4
20260505090503 63 92 0.0 0.0 0.00 0.00 0.00 91 1015.3
20260505090035 63 92 0.0 0.0 0.00 0.00 0.00 90 1015.3
20260505085510 63 92 0.0 0.0 0.00 0.00 0.00 90 1015.3
20260505085010 63 92 0.0 0.0 0.00 0.00 0.00 90 1015.3
20260505084520 63 92 0.0 0.0 0.00 0.00 0.00 90 1015.2
20260505084007 63 92 0.0 0.0 0.00 0.00 0.00 89 1015.4
20260505083512 64 92 0.0 0.0 0.00 0.00 0.00 89 1015.4
20260505083017 64 92 0.0 0.0 0.00 0.00 0.00 89 1015.3
20260505082508 64 92 0.0 0.0 0.00 0.00 0.00 89 1015.2
20260505082010 64 92 0.0 0.0 0.00 0.00 0.00 89 1015.1
20260505081533 64 92 0.0 2.0 0.00 0.00 0.00 89 1015.1
20260505081005 64 92 0.0 2.0 0.00 0.00 0.00 89 1015.2
20260505080506 64 92 0.0 1.0 0.00 0.00 0.00 89 1015.2
20260505080017 64 91 0.0 3.0 0.00 0.00 0.00 89 1015.2
20260505075503 64 89 0.0 3.0 0.00 0.00 0.00 89 1015.2
20260505075007 64 72 1.0 3.0 0.00 0.00 0.00 89 1015.4
20260505074524 64 73 0.0 4.0 0.00 0.00 0.00 89 1015.4
20260505074007 64 75 1.0 4.0 0.00 0.00 0.00 89 1015.4
20260505073040 64 82 0.0 2.0 0.00 0.00 0.00 88 1015.5
20260505072513 64 109 0.0 1.0 0.00 0.00 0.00 88 1015.5
20260505072007 65 111 0.0 1.0 0.00 0.00 0.00 87 1015.5
20260505071521 65 114 0.0 0.0 0.00 0.00 0.00 86 1015.4
20260505071007 65 114 0.0 0.0 0.00 0.00 0.00 86 1015.4
20260505070512 65 114 0.0 0.0 0.00 0.00 0.00 86 1015.4
20260505070022 66 114 0.0 1.0 0.00 0.00 0.00 85 1015.5
20260505065505 66 114 0.0 1.0 0.00 0.00 0.00 85 1015.5
20260505065006 66 114 0.0 2.0 0.00 0.00 0.00 85 1015.5
20260505064535 66 114 0.0 2.0 0.00 0.00 0.00 85 1015.7
20260505064007 67 106 0.0 2.0 0.00 0.00 0.00 84 1015.9
20260505063509 67 109 0.0 3.0 0.00 0.00 0.00 84 1016.0
20260505063022 67 101 1.0 7.0 0.00 0.00 0.00 84 1015.9
20260505062011 67 72 1.0 4.0 0.00 0.00 0.00 84 1016.0
20260505061539 67 87 1.0 6.0 0.00 0.00 0.00 84 1015.9
20260505061003 67 73 1.0 5.0 0.00 0.00 0.00 84 1016.1
20260505060505 67 97 2.0 6.0 0.00 0.00 0.00 84 1016.0
20260505055506 68 79 1.0 5.0 0.00 0.00 0.00 83 1016.1
20260505055007 68 69 1.0 5.0 0.00 0.00 0.00 83 1016.3
20260505054007 68 64 1.0 8.0 0.00 0.00 0.00 83 1016.3
20260505053508 68 65 2.0 8.0 0.00 0.00 0.00 83 1016.4
20260505053005 68 82 1.0 7.0 0.00 0.00 0.00 83 1016.4
20260505052504 68 59 3.0 7.0 0.00 0.00 0.00 83 1016.5
20260505052004 68 81 2.0 5.0 0.00 0.00 0.00 83 1016.5
20260505051507 68 71 1.0 4.0 0.00 0.00 0.00 83 1016.7
20260505051006 68 70 1.0 4.0 0.00 0.00 0.00 83 1016.5
20260505050506 68 81 2.0 4.0 0.00 0.00 0.00 83 1016.6
20260505041511 68 71 1.0 4.0 0.00 0.00 0.00 82 1017.2
20260505041004 68 60 1.0 3.0 0.00 0.00 0.00 82 1017.1
20260505040503 68 69 1.0 4.0 0.00 0.00 0.00 81 1017.2
20260505040011 68 68 2.0 6.0 0.00 0.00 0.00 81 1017.0
20260505035502 68 71 1.0 7.0 0.00 0.00 0.00 81 1017.0
20260505035003 68 92 2.0 7.0 0.00 0.00 0.00 80 1017.0
20260505034513 68 93 2.0 7.0 0.00 0.00 0.00 80 1017.0
20260505034006 68 107 1.0 4.0 0.00 0.00 0.00 79 1017.1
20260505033503 68 71 1.0 4.0 0.00 0.00 0.00 79 1017.0
20260505033020 68 90 1.0 4.0 0.00 0.00 0.00 79 1017.1
20260505032506 68 74 0.0 5.0 0.00 0.00 0.00 78 1017.2
20260505032003 69 80 1.0 5.0 0.00 0.00 0.00 78 1017.3
20260505031535 69 86 2.0 6.0 0.00 0.00 0.00 78 1017.2
20260505031009 69 70 1.0 6.0 0.00 0.00 0.00 78 1017.1
20260505030503 69 66 1.0 6.0 0.00 0.00 0.00 77 1017.2
20260505030009 69 96 3.0 7.0 0.00 0.00 0.00 77 1017.0
20260505025504 69 71 2.0 7.0 0.00 0.00 0.00 76 1016.9
20260505025004 69 89 3.0 6.0 0.00 0.00 0.00 76 1016.9
20260505024519 69 34 2.0 8.0 0.00 0.00 0.00 76 1017.0
20260505024003 69 62 3.0 8.0 0.00 0.00 0.00 76 1017.1
20260505023503 70 86 3.0 7.0 0.00 0.00 0.00 75 1017.1
20260505023010 70 76 3.0 9.0 0.00 0.00 0.00 75 1017.1
20260505022503 70 106 3.0 9.0 0.00 0.00 0.00 75 1017.0
20260505022007 70 76 3.0 9.0 0.00 0.00 0.00 74 1016.9
20260505021526 70 74 2.0 6.0 0.00 0.00 0.00 74 1016.9
20260505021006 70 111 2.0 6.0 0.00 0.00 0.00 73 1016.8
20260505020028 70 81 2.0 7.0 0.00 0.00 0.00 72 1016.7
20260505015513 70 97 3.0 10.0 0.00 0.00 0.00 72 1016.7
20260505015004 71 71 4.0 10.0 0.00 0.00 0.00 72 1016.6
20260505014507 71 79 3.0 9.0 0.00 0.00 0.00 72 1016.6
20260505014003 71 102 3.0 9.0 0.00 0.00 0.00 72 1016.5
20260505013504 71 67 3.0 9.0 0.00 0.00 0.00 71 1016.8
20260505013012 71 78 1.0 10.0 0.00 0.00 0.00 72 1016.6
20260505012503 71 87 4.0 10.0 0.00 0.00 0.00 71 1016.5
20260505012007 71 92 2.0 7.0 0.00 0.00 0.00 71 1016.4
20260505011511 71 93 3.0 9.0 0.00 0.00 0.00 70 1016.5
20260505011006 72 115 4.0 9.0 0.00 0.00 0.00 70 1016.3
20260505010508 72 90 3.0 7.0 0.00 0.00 0.00 70 1016.2
20260505005008 72 82 3.0 8.0 0.00 0.00 0.00 69 1016.2
20260505004542 72 88 4.0 9.0 0.00 0.00 0.00 69 1016.2
20260505004003 73 93 4.0 10.0 0.00 0.00 0.00 68 1016.2
20260505003503 73 83 3.0 11.0 0.00 0.00 0.00 68 1016.3
20260505003012 73 75 5.0 11.0 0.00 0.00 0.00 67 1016.1
20260505002509 73 108 5.0 10.0 0.00 0.00 0.00 68 1016.0
20260505002012 73 142 4.0 10.0 0.00 0.00 0.00 67 1015.9
20260505001514 74 105 3.0 9.0 0.00 0.00 0.00 68 1015.9
20260505001012 74 122 4.0 9.0 0.00 0.00 0.00 67 1015.8
20260505000503 74 113 4.0 13.0 0.00 0.00 0.00 66 1015.5
20260505000034 75 75 4.0 13.0 0.00 0.00 0.00 66 1015.5
20260504235507 75 79 2.0 10.0 0.00 0.00 0.00 66 1015.5
20260504235003 75 95 5.0 10.0 0.00 0.00 0.00 65 1015.6
20260504234515 76 92 1.0 10.0 0.00 0.00 0.00 65 1015.4